Time,TemperatureF,DewpointF,PressureIn,WindDirection,WindDirectionDegrees,WindSpeedMPH,WindSpeedGustMPH,Humidity,HourlyPrecipIn,Conditions,Clouds,dailyrainin,SolarRadiationWatts/m^2,SoftwareType,DateUTC
2013-05-15 00:00:00,58.0,42.0,-100.00,SE,135,6.0,-999.0,56,-99.99,,,-99.99,0.000000,,2013-05-15 04:00:00,
2013-05-15 00:43:00,58.0,42.0,-100.00,SE,135,6.0,-999.0,56,-99.99,,,-99.99,0.000000,,2013-05-15 04:43:00,
2013-05-15 00:52:00,58.0,42.0,-100.00,SE,135,6.0,-999.0,56,-99.99,,,-99.99,0.000000,,2013-05-15 04:52:00,
2013-05-15 01:00:00,56.0,43.0,-100.00,ESE,112,7.0,-999.0,61,-99.99,,,-99.99,0.000000,,2013-05-15 05:00:00,
2013-05-15 01:42:00,56.0,43.0,-100.00,ESE,112,7.0,-999.0,61,-99.99,,,-99.99,0.000000,,2013-05-15 05:42:00,
2013-05-15 01:52:00,56.0,43.0,-100.00,ESE,112,7.0,-999.0,61,-99.99,,,-99.99,0.000000,,2013-05-15 05:52:00,
2013-05-15 02:00:00,56.0,44.0,-100.00,ESE,112,5.0,-999.0,63,-99.99,,,-99.99,0.000000,,2013-05-15 06:00:00,
2013-05-15 02:42:00,56.0,44.0,-100.00,ESE,112,5.0,-999.0,63,-99.99,,,-99.99,0.000000,,2013-05-15 06:42:00,
2013-05-15 02:52:00,56.0,44.0,-100.00,ESE,112,5.0,-999.0,63,-99.99,,,-99.99,0.000000,,2013-05-15 06:52:00,
2013-05-15 03:00:00,57.0,44.0,-100.00,SSE,157,4.0,-999.0,62,-99.99,,,-99.99,0.000000,,2013-05-15 07:00:00,
2013-05-15 03:42:00,57.0,44.0,-100.00,SSE,157,4.0,-999.0,62,-99.99,,,-99.99,0.000000,,2013-05-15 07:42:00,
2013-05-15 03:52:00,57.0,44.0,-100.00,SSE,157,4.0,-999.0,62,-99.99,,,-99.99,0.000000,,2013-05-15 07:52:00,
2013-05-15 04:00:00,56.0,45.0,-100.00,South,180,4.0,-999.0,64,-99.99,,,-99.99,0.000000,,2013-05-15 08:00:00,
2013-05-15 04:42:00,56.0,45.0,-100.00,South,180,4.0,-999.0,64,-99.99,,,-99.99,0.000000,,2013-05-15 08:42:00,
2013-05-15 04:53:00,56.0,45.0,-100.00,South,180,4.0,-999.0,64,-99.99,,,-99.99,0.000000,,2013-05-15 08:53:00,
2013-05-15 05:00:00,56.0,45.0,-100.00,SW,225,5.0,-999.0,67,-99.99,,,-99.99,0.000000,,2013-05-15 09:00:00,
2013-05-15 05:42:00,56.0,45.0,-100.00,SW,225,5.0,-999.0,67,-99.99,,,-99.99,0.000000,,2013-05-15 09:42:00,
2013-05-15 05:53:00,56.0,45.0,-100.00,SW,225,5.0,-999.0,67,-99.99,,,-99.99,0.000000,,2013-05-15 09:53:00,
2013-05-15 06:43:00,51.0,44.0,-100.00,WSW,247,6.0,-999.0,76,-99.99,,,-99.99,0.000000,,2013-05-15 10:43:00,
2013-05-15 06:53:00,51.0,44.0,-100.00,WSW,247,6.0,-999.0,76,-99.99,,,-99.99,0.000000,,2013-05-15 10:53:00,
2013-05-15 07:00:00,48.0,43.0,-100.00,WSW,247,6.0,-999.0,80,-99.99,,,-99.99,22.040001,,2013-05-15 11:00:00,
2013-05-15 07:50:00,48.0,43.0,-100.00,WSW,247,6.0,-999.0,80,-99.99,,,-99.99,22.040001,,2013-05-15 11:50:00,
2013-05-15 08:49:00,49.0,43.0,-100.00,West,270,7.0,-999.0,78,-99.99,,,-99.99,147.320007,,2013-05-15 12:49:00,
2013-05-15 08:58:00,49.0,43.0,-100.00,West,270,7.0,-999.0,78,-99.99,,,-99.99,147.320007,,2013-05-15 12:58:00,
2013-05-15 10:00:00,55.0,44.0,-100.00,West,270,4.0,-999.0,65,-99.99,,,-99.99,477.920013,,2013-05-15 14:00:00,
2013-05-15 10:52:00,55.0,44.0,-100.00,West,270,4.0,-999.0,65,-99.99,,,-99.99,477.920013,,2013-05-15 14:52:00,
2013-05-15 10:59:00,55.0,44.0,-100.00,West,270,4.0,-999.0,65,-99.99,,,-99.99,477.920013,,2013-05-15 14:59:00,
2013-05-15 11:00:00,59.0,46.0,-100.00,West,270,4.0,-999.0,60,-99.99,,,-99.99,627.559998,,2013-05-15 15:00:00,
2013-05-15 11:49:00,59.0,46.0,-100.00,West,270,4.0,-999.0,60,-99.99,,,-99.99,627.559998,,2013-05-15 15:49:00,
2013-05-15 12:00:00,60.0,46.0,-100.00,West,270,6.0,-999.0,59,-99.99,,,-99.99,734.280029,,2013-05-15 16:00:00,
2013-05-15 12:52:00,60.0,46.0,-100.00,West,270,6.0,-999.0,59,-99.99,,,-99.99,734.280029,,2013-05-15 16:52:00,
2013-05-15 13:00:00,62.0,46.0,-100.00,WSW,247,8.0,-999.0,55,-99.99,,,-99.99,786.479980,,2013-05-15 17:00:00,
2013-05-15 13:49:00,62.0,46.0,-100.00,WSW,247,8.0,-999.0,55,-99.99,,,-99.99,786.479980,,2013-05-15 17:49:00,
2013-05-15 14:00:00,65.0,46.0,-100.00,WSW,247,8.0,-999.0,50,-99.99,,,-99.99,786.479980,,2013-05-15 18:00:00,
2013-05-15 14:58:00,65.0,46.0,-100.00,WSW,247,8.0,-999.0,50,-99.99,,,-99.99,786.479980,,2013-05-15 18:58:00,
2013-05-15 15:00:00,67.0,46.0,-100.00,WSW,247,7.0,-999.0,46,-99.99,,,-99.99,720.359985,,2013-05-15 19:00:00,
2013-05-15 15:50:00,67.0,46.0,-100.00,WSW,247,7.0,-999.0,46,-99.99,,,-99.99,720.359985,,2013-05-15 19:50:00,
2013-05-15 16:00:00,68.0,44.0,-100.00,WSW,247,7.0,-999.0,42,-99.99,,,-99.99,720.359985,,2013-05-15 20:00:00,
2013-05-15 16:47:00,68.0,44.0,-100.00,WSW,247,7.0,-999.0,42,-99.99,,,-99.99,720.359985,,2013-05-15 20:47:00,
2013-05-15 17:00:00,68.0,42.0,-100.00,WSW,247,7.0,-999.0,39,-99.99,,,-99.99,574.200012,,2013-05-15 21:00:00,
2013-05-15 17:54:00,68.0,42.0,-100.00,WSW,247,7.0,-999.0,39,-99.99,,,-99.99,574.200012,,2013-05-15 21:54:00,
2013-05-15 18:00:00,69.0,40.0,-100.00,WSW,247,7.0,-999.0,35,-99.99,,,-99.99,497.640015,,2013-05-15 22:00:00,
2013-05-15 18:53:00,69.0,40.0,-100.00,WSW,247,7.0,-999.0,35,-99.99,,,-99.99,497.640015,,2013-05-15 22:53:00,
2013-05-15 19:00:00,68.0,38.0,-100.00,WSW,247,7.0,-999.0,33,-99.99,,,-99.99,352.640015,,2013-05-15 23:00:00,
2013-05-15 19:50:00,68.0,38.0,-100.00,WSW,247,7.0,-999.0,33,-99.99,,,-99.99,352.640015,,2013-05-15 23:50:00,
2013-05-15 21:00:00,63.0,37.0,-100.00,SW,225,2.0,-999.0,37,-99.99,,,-99.99,46.400002,,2013-05-16 01:00:00,
2013-05-15 21:50:00,63.0,37.0,-100.00,SW,225,2.0,-999.0,37,-99.99,,,-99.99,46.400002,,2013-05-16 01:50:00,
2013-05-15 22:00:00,57.0,40.0,-100.00,East,90,1.0,-999.0,52,-99.99,,,-99.99,1.160000,,2013-05-16 02:00:00,
2013-05-15 23:00:00,52.0,40.0,-100.00,ENE,67,1.0,-999.0,63,-99.99,,,-99.99,0.000000,,2013-05-16 03:00:00,
2013-05-15 23:47:00,52.0,40.0,-100.00,ENE,67,1.0,-999.0,63,-99.99,,,-99.99,0.000000,,2013-05-16 03:47:00,
2013-05-15 23:58:00,52.0,40.0,-100.00,ENE,67,1.0,-999.0,63,-99.99,,,-99.99,0.000000,,2013-05-16 03:58:00,